World > North America > United States > Arizona > Flagstaff   City of Flagstaff, AZ

Flagstaff, AZ Hourly Weather Updates

Feedback E-mail the Weather

Quick Clicks

Flagstaff, AZ Weather Maps

°F °C°F °C
Flagstaff Weather Map
UTC Time: 4/24/2024, 19:33
Your Time:

Flagstaff, AZ Regional Weather

Expires:202404242000;;306443
ASUS45 KPSR 241910
RWRAZ 

ARIZONA HOURLY REGIONAL WEATHER ROUNDUP
NATIONAL WEATHER SERVICE PHOENIX AZ
1200 PM MST WED APR 24 2024

NOTE: FAIR INDICATES FEW OR NO CLOUDS BELOW 12,000 FEET WITH NO
SIGNIFICANT WEATHER AND/OR OBSTRUCTIONS TO VISIBILITY.


AZZ004>008-015-016-018-242000-
NORTH CENTRAL ARIZONA
  
CITY           SKY/WX    TMP DP  RH WIND       PRES   REMARKS
GRAND CANYON   SUNNY     66  15  14 S10G24    30.11F TC  19           
WILLIAMS       SUNNY     64  18  16 SW17G23   30.13F TC  18           
PRESCOTT       SUNNY     72  28  19 SW15G22   30.07F TC  22           
FLAGSTAFF      SUNNY     62  20  19 S8G20     30.15F TC  17           
PAYSON         MOSUNNY   70  23  17 S10G17    30.12F TC  21           
PAGE           SUNNY     79  20  11 CALM      29.96F TC  26           
$$


SKY/WX - Weather  TMP - Temperature  DP - Dew Point  RH - Humidity
WIND - Wind Direction/Speed PRES - Barometric Pressure VSB - Visibility
WCI - Wind Chill Index E13G22 Wind - East Wind 13 mph/Gusts of 22 mph

Trending Headlines

Trending Entertainment Headlines

Flagstaff Radar Loop

Use the map search tool if you want to place a location marker on the radar map...

Flagstaff Quick Facts

National Two Day Weather Forecast


E-mail the Flagstaff Weather Forecast

Voice your opinion or tell us about page issues...